Location: �quirre
(50.4736°N, 2.2351°E)
Time: 06:06:28
(UTC+00:00)

NPP - Pass Details

Date: 07 August 2020
Orbit: 826 x 827 km, 98.7° (Epoch: 23 September)

Event Time Altitude Azimuth Distance (km) Brightness Sun altitude
Rises 02:07:35 0° 13° (NNE) 3,381 8.2 -17.3°
Reaches altitude 10° 02:09:57 10° 11° (N) 2,443 7.2 -17.1°
Maximum altitude 02:15:19 69° 290° (WNW) 887 3.7 -16.6°
Enters shadow 02:18:21 26° 213° (SSW) 1,562 4.5 -16.3°
